Regional Weather Roundup
Issued by NWS

Home | Current Version | Previous Version | Graphics & Text | Print | Product List | Glossary On
Versions: 1 2 3 4 5 6 7 8 9 10 11 12 13 14 15 16 17 18 19 20 21 22 23 24 25 26 27 28 29 30 31 32 33 34 35 36 37 38 39 40 41 42 43 44 45 46 47 48 49 50
000
ASUS43 KLMK 010710
RWRKY
KENTUCKY REGIONAL WEATHER ROUNDUP
NATIONAL WEATHER SERVICE LOUISVILLE KY
300 AM EDT WED OCT 01 2014

NOTE "FAIR" INDICATES FEW OR NO CLOUDS BELOW 12,000 FEET
WITH NO SIGNIFICANT WEATHER AND/OR OBSTRUCTIONS TO VISIBILITY.

KYZ001>023-026-027-061>063-070>075-010800-
WESTERN AND SOUTH CENTRAL KENTUCKY

CITY           SKY/WX    TMP DP  RH WIND       PRES   REMARKS
PADUCAH        CLEAR     58  55  90 CALM      29.90S
HENDERSON      NOT AVBL
OWENSBORO      PTCLDY    66  62  87 E5        29.94S
HOPKINSVILLE   CLEAR     60  55  83 N1        29.92S
BOWLING GREEN  CLEAR     60  55  83 CALM      29.94S
GLASGOW        MOCLDY    57  57  99 CALM      29.95R
$$

KYZ024-025-028>034-038-045-046-053-010800-
NORTH CENTRAL KENTUCKY

CITY           SKY/WX    TMP DP  RH WIND       PRES   REMARKS
LOUISVILLE/SDF CLEAR     63  57  81 NE5       29.97R
LOUISVILLE/LOU CLEAR     62  57  83 NE6       29.98R
FORT KNOX      CLEAR     62  59  90 NE5       29.96R
$$

KYZ035>037-039>044-047>052-055>060-089>105-010800-
NORTHEAST KENTUCKY

CITY           SKY/WX    TMP DP  RH WIND       PRES   REMARKS
LEXINGTON      PTCLDY    60  56  86 NE7       29.98S FOG
COVINGTON      PTCLDY    53  47  79 E5        30.00R
FRANKFORT      MOCLDY    59  56  89 NE7       29.98R
$$

KYZ054-064>069-076>088-106>120-010800-
SOUTHEAST KENTUCKY

CITY           SKY/WX    TMP DP  RH WIND       PRES   REMARKS
JACKSON        CLEAR     63  58  83 E3        29.97R
LONDON         CLEAR     57  54  89 CALM      29.97S
SOMERSET       CLEAR     55  55 100 CALM      29.97S
MIDDLESBORO    PTCLDY    53  53  99 CALM      29.99S
MONTICELLO     SUNNY     54  53  96 CALM      29.98R
$$




USA.gov is the U.S. government's official web portal to all federal, state and local government web resources and services.